Regional Weather Roundup
Issued by NWS Sioux Falls, SD

Home | Current Version | Previous Version | Graphics & Text | Print | Product List | Glossary Off
Versions: 1 2 3 4 5 6 7 8 9 10 11 12 13 14 15 16 17 18 19 20 21 22 23 24 25 26 27 28 29 30 31 32 33 34 35 36 37 38 39 40 41 42 43 44 45 46 47 48 49 50

000
ASUS43 KFSD 210210
RWRFSD

WEATHER ROUNDUP FOR SE SOUTH DAKOTA/SW MINNESOTA/NW IOWA
NATIONAL WEATHER SERVICE SIOUX FALLS SD
800 PM CST MON FEB 20 2017

NOTE: "FAIR" INDICATES FEW OR NO CLOUDS BELOW 12,000 FEET WITH NO
SIGNIFICANT WEATHER AND OR OBSTRUCTIONS TO VISIBILITY.


SDZ038>040-050-052>070-210300-
SOUTHEAST SOUTH DAKOTA

CITY           SKY/WX    TMP DP  RH WIND       PRES   REMARKS
BROOKINGS      CLEAR     39  37  92 W7        29.83S
CHAMBERLAIN    CLEAR     42  35  76 SE3       29.86R
HURON          CLEAR     40  40 100 CALM      29.84S
MADISON        FAIR      41  41 100 W8        29.85S
MITCHELL       CLEAR     42  37  82 SE6       29.86S
SIOUX FALLS    CLEAR     42  39  89 W6        29.86R
WINNER         FAIR      47  28  47 S6        29.88R
YANKTON        CLEAR     45  37  76 SW3       29.88S
$$

MNZ071-072-080-081-089-090-097-098-210300-
SOUTHWEST MINNESOTA

CITY           SKY/WX    TMP DP  RH WIND       PRES   REMARKS
FAIRMONT       PTCLDY    48  43  82 W17       29.82R
JACKSON        PTCLDY    45  39  81 W20       29.83S
LUVERNE        CLEAR     39  36  87 CALM      29.87R
MARSHALL       CLEAR     42  39  89 W12       29.83R
MONTEVIDEO     CLEAR     39  39 100 NW7       29.83R
PIPESTONE      CLEAR     43  36  75 W7        29.85R
REDWOOD FALLS  CLEAR     43  39  86 NW13      29.80R
TRACY          CLEAR     45  42  87 W10       29.84R
WINDOM         CLEAR     45  41  87 W13       29.83R
WORTHINGTON    CLEAR     44  41  89 W15       29.86R
$$

IAZ001>003-012>014-020>022-031-032-NEZ013-014-SDZ071-210300-
NORTHWEST IOWA

CITY           SKY/WX    TMP DP  RH WIND       PRES   REMARKS
CHEROKEE       CLEAR     44  44  99 W5        29.89R
DENISON        CLEAR     46  43  87 CALM      29.89R
ESTHERVILLE    CLOUDY    47  44  90 W23       29.83R
LE MARS        CLEAR     43  41  93 W6        29.91R
SHELDON        CLEAR     45  45 100 W10       29.87R
SIOUX CITY     CLEAR     47  42  83 W6        29.91R
SPENCER        CLEAR     46  42  86 W15       29.86R
STORM LAKE     CLEAR     45  43  93 W12       29.87R
$$

ABBREVIATIONS USED IN REMARKS
   TC - TEMPERATURE IN CELSIUS
  WCI - WIND CHILL INDEX
   HX - HEAT INDEX
  VSB - VISIBILITY





USA.gov is the U.S. government's official web portal to all federal, state and local government web resources and services.